This is the latest recevied weather packets stored in our database for station/object 5B4APJ-13. If no packets are shown the sender has not sent any weather packets the latest 10 day(s).
| Time | Temp. | Humidity | Pressure | Rain* | Wind** | Luminosity | Snow |
|---|---|---|---|---|---|---|---|
| 1777879625 | 12.78° C | 73% | 1008.1 hPa | 0.25 mm | 5.36 m/s, 224° | 973 W/m² | - |
| 1777879325 | 12.78° C | 75% | 1007.9 hPa | 0.25 mm | 4.92 m/s, 235° | 299 W/m² | - |
| 1777879026 | 13.89° C | 72% | 1007.9 hPa | 0 mm | 5.36 m/s, 235° | 212 W/m² | - |
| 1777878725 | 14.44° C | 71% | 1007.5 hPa | 0 mm | 2.68 m/s, 248° | 195 W/m² | - |
| 1777878425 | 13.89° C | 71% | 1007.6 hPa | 0 mm | 3.13 m/s, 241° | 409 W/m² | - |
| 1777878126 | 13.33° C | 76% | 1007.6 hPa | 0 mm | 3.13 m/s, 211° | 272 W/m² | - |
| 1777877825 | 13.33° C | 77% | 1007.5 hPa | 0 mm | 4.02 m/s, 241° | 454 W/m² | - |
| 1777877525 | 13.33° C | 79% | 1007.7 hPa | 0 mm | 4.47 m/s, 244° | 599 W/m² | - |
| 1777877225 | 12.22° C | 84% | 1007.6 hPa | 0 mm | 4.92 m/s, 199° | 539 W/m² | - |
| 1777876924 | 11.67° C | 84% | 1007.6 hPa | 0 mm | 1.34 m/s, 154° | 227 W/m² | - |
| 1777876625 | 12.22° C | 82% | 1007.6 hPa | 0 mm | 1.34 m/s, 240° | 86 W/m² | - |
| 1777876325 | 12.22° C | 80% | 1007.8 hPa | 0 mm | 1.79 m/s, 230° | 52 W/m² | - |
| 1777876025 | 12.78° C | 74% | 1007.8 hPa | 0 mm | 2.68 m/s, 250° | 64 W/m² | - |
| 1777875725 | 12.78° C | 73% | 1007.7 hPa | 0 mm | 3.58 m/s, 255° | 354 W/m² | - |
| 1777875425 | 12.78° C | 73% | 1007.5 hPa | 0 mm | 3.13 m/s, 221° | 294 W/m² | - |
| 1777875125 | 12.78° C | 75% | 1007.4 hPa | 0 mm | 1.79 m/s, 198° | 426 W/m² | - |
| 1777874825 | 12.78° C | 73% | 1007.2 hPa | 0 mm | 1.79 m/s, 207° | 140 W/m² | - |
| 1777874525 | 13.33° C | 74% | 1007.4 hPa | 0 mm | 5.81 m/s, 243° | 230 W/m² | - |
| 1777874225 | 12.78° C | 75% | 1007.2 hPa | 0 mm | 3.13 m/s, 162° | 509 W/m² | - |
| 1777873925 | 12.22° C | 76% | 1007.4 hPa | 0 mm | 4.02 m/s, 179° | 221 W/m² | - |
| 1777873625 | 12.78° C | 74% | 1007 hPa | 0 mm | 2.24 m/s, 253° | 180 W/m² | - |
| 1777873325 | 12.22° C | 78% | 1007.1 hPa | 0 mm | 3.13 m/s, 237° | 644 W/m² | - |
| 1777873025 | 11.67° C | 82% | 1007.3 hPa | 0 mm | 4.02 m/s, 246° | 197 W/m² | - |
| 1777872725 | 11.67° C | 82% | 1007.4 hPa | 0 mm | 1.79 m/s, 91° | 128 W/m² | - |
| 1777872425 | 11.67° C | 80% | 1007.5 hPa | 0 mm | 3.13 m/s, 236° | 60 W/m² | - |
* Rain latest hour (hover to see other rain measurements)
** Current wind speed in m/s (hover to see current wind gust speed)